TimeCDT,TemperatureF,Dew PointF,Humidity,Sea Level PressureIn,VisibilityMPH,Wind Direction,Wind SpeedMPH,Gust SpeedMPH,PrecipitationIn,Events,Conditions,WindDirDegrees,DateUTC
12:15 AM,64.4,62.6,94,29.91,10.0,NNW,8.1,-,N/A,,Overcast,330,2013-08-07 05:15:00
12:35 AM,64.4,60.8,88,29.91,10.0,NNW,6.9,-,N/A,,Overcast,340,2013-08-07 05:35:00
12:55 AM,62.6,60.8,94,29.91,10.0,NNW,5.8,-,N/A,,Mostly Cloudy,330,2013-08-07 05:55:00
1:14 AM,62.6,60.8,94,29.92,10.0,NW,8.1,-,N/A,,Scattered Clouds,320,2013-08-07 06:14:00
1:34 AM,62.6,60.8,94,29.93,10.0,NW,5.8,-,N/A,,Clear,310,2013-08-07 06:34:00
8:54 AM,60.8,55.4,82,30.03,10.0,WNW,4.6,-,N/A,,Clear,290,2013-08-07 13:54:00
9:15 AM,62.6,57.2,82,30.03,10.0,NW,3.5,-,N/A,,Clear,310,2013-08-07 14:15:00
9:35 AM,62.6,57.2,82,30.03,10.0,NNW,4.6,-,N/A,,Clear,340,2013-08-07 14:35:00
9:55 AM,64.4,59.0,83,30.03,10.0,WNW,4.6,-,N/A,,Clear,300,2013-08-07 14:55:00
10:15 AM,66.2,57.2,73,30.03,10.0,Calm,Calm,-,N/A,,Clear,0,2013-08-07 15:15:00
10:34 AM,66.2,57.2,73,30.03,10.0,Calm,Calm,-,N/A,,Clear,0,2013-08-07 15:34:00
10:54 AM,68.0,57.2,68,30.04,10.0,NW,3.5,-,N/A,,Clear,310,2013-08-07 15:54:00
11:14 AM,69.8,57.2,64,30.04,10.0,Calm,Calm,-,N/A,,Clear,0,2013-08-07 16:14:00
11:34 AM,69.8,57.2,64,30.04,10.0,North,3.5,-,N/A,,Clear,350,2013-08-07 16:34:00
11:54 AM,69.8,57.2,64,30.05,10.0,Calm,Calm,-,N/A,,Clear,0,2013-08-07 16:54:00
12:15 PM,69.8,55.4,60,30.05,10.0,Calm,Calm,-,N/A,,Scattered Clouds,0,2013-08-07 17:15:00
12:34 PM,71.6,55.4,57,30.05,10.0,Calm,Calm,-,N/A,,Clear,0,2013-08-07 17:34:00
12:55 PM,71.6,55.4,57,30.05,10.0,Calm,Calm,-,N/A,,Clear,0,2013-08-07 17:55:00
1:14 PM,71.6,57.2,60,30.05,10.0,Calm,Calm,-,N/A,,Clear,0,2013-08-07 18:14:00
1:35 PM,73.4,55.4,53,30.05,10.0,WSW,4.6,-,N/A,,Scattered Clouds,250,2013-08-07 18:35:00
1:54 PM,73.4,57.2,57,30.04,10.0,Calm,Calm,-,N/A,,Scattered Clouds,0,2013-08-07 18:54:00
2:15 PM,71.6,55.4,57,30.04,10.0,Calm,Calm,-,N/A,,Scattered Clouds,0,2013-08-07 19:15:00
2:34 PM,73.4,57.2,57,30.04,10.0,West,3.5,-,N/A,,Scattered Clouds,260,2013-08-07 19:34:00
2:54 PM,75.2,57.2,53,30.03,10.0,Calm,Calm,-,N/A,,Clear,0,2013-08-07 19:54:00
3:14 PM,73.4,57.2,57,30.03,10.0,Calm,Calm,-,N/A,,Clear,0,2013-08-07 20:14:00
3:34 PM,75.2,57.2,53,30.03,10.0,NNW,3.5,-,N/A,,Clear,340,2013-08-07 20:34:00
3:54 PM,75.2,57.2,53,30.03,10.0,NNW,3.5,-,N/A,,Clear,330,2013-08-07 20:54:00
4:14 PM,73.4,57.2,57,30.03,10.0,ESE,3.5,-,N/A,,Clear,120,2013-08-07 21:14:00
4:34 PM,75.2,57.2,53,30.02,10.0,Calm,Calm,-,N/A,,Scattered Clouds,0,2013-08-07 21:34:00
4:54 PM,75.2,57.2,53,30.02,10.0,Calm,Calm,-,N/A,,Clear,0,2013-08-07 21:54:00
5:14 PM,75.2,57.2,53,30.02,10.0,Calm,Calm,-,N/A,,Clear,0,2013-08-07 22:14:00
5:34 PM,75.2,55.4,50,30.02,10.0,WNW,3.5,-,N/A,,Clear,290,2013-08-07 22:34:00
5:55 PM,75.2,55.4,50,30.02,10.0,Calm,Calm,-,N/A,,Clear,0,2013-08-07 22:55:00
6:14 PM,75.2,53.6,47,30.02,10.0,Calm,Calm,-,N/A,,Clear,0,2013-08-07 23:14:00
6:34 PM,73.4,53.6,50,30.02,10.0,Calm,Calm,-,N/A,,Clear,0,2013-08-07 23:34:00
6:55 PM,73.4,53.6,50,30.02,10.0,Calm,Calm,-,N/A,,Clear,0,2013-08-07 23:55:00
7:14 PM,73.4,53.6,50,30.02,10.0,Calm,Calm,-,N/A,,Clear,0,2013-08-08 00:14:00
7:34 PM,73.4,55.4,53,30.02,10.0,Calm,Calm,-,N/A,,Clear,0,2013-08-08 00:34:00
7:54 PM,71.6,59.0,64,30.02,10.0,Calm,Calm,-,N/A,,Scattered Clouds,0,2013-08-08 00:54:00
8:15 PM,71.6,57.2,60,30.02,10.0,Calm,Calm,-,N/A,,Scattered Clouds,0,2013-08-08 01:15:00
8:34 PM,68.0,62.6,83,30.02,10.0,Calm,Calm,-,N/A,,Clear,0,2013-08-08 01:34:00
8:54 PM,66.2,60.8,83,30.03,10.0,Calm,Calm,-,N/A,,Scattered Clouds,0,2013-08-08 01:54:00
9:14 PM,64.4,60.8,88,30.02,10.0,SE,3.5,-,N/A,,Scattered Clouds,130,2013-08-08 02:14:00
9:34 PM,64.4,59.0,83,30.02,10.0,SE,4.6,-,N/A,,Clear,140,2013-08-08 02:34:00
9:54 PM,62.6,59.0,88,30.03,10.0,Calm,Calm,-,N/A,,Clear,0,2013-08-08 02:54:00
10:14 PM,60.8,57.2,88,30.03,10.0,SE,4.6,-,N/A,,Clear,140,2013-08-08 03:14:00
10:34 PM,60.8,57.2,88,30.03,10.0,SE,3.5,-,N/A,,Clear,140,2013-08-08 03:34:00
10:54 PM,60.8,57.2,88,30.03,10.0,SE,3.5,-,N/A,,Clear,140,2013-08-08 03:54:00
11:14 PM,60.8,57.2,88,30.03,10.0,SE,5.8,-,N/A,,Clear,140,2013-08-08 04:14:00
11:34 PM,59.0,55.4,88,30.03,10.0,Calm,Calm,-,N/A,,Clear,0,2013-08-08 04:34:00
11:54 PM,60.8,55.4,82,30.03,10.0,South,6.9,-,N/A,,Scattered Clouds,170,2013-08-08 04:54:00